sat.trackr.live / text

‹ back to catalog

STARLINK-36358

NORAD 67598 · 2026-018K

PAYLOAD ACTIVE UNKNOWN

§ Identity

Operator
Country
US
Launch date
2026-01-29
Launch site
AFWTR
Launch vehicle
Mass (kg)
RCS (m²)

Purposes: comms

External: N2YO · Heavens-Above · Gunter

§ Orbital elements

Epoch: 2026-09-19T10:13:52.356288Z

Period
93.91 min
Inclination
97.2872°
Eccentricity
0.0001040
Mean motion
15.33442800 rev/d
Perigee alt
464.8 km
Apogee alt
466.3 km
Semi-major
6,843.7 km
B*
6.1559e-4
RAAN
325.8640°
Arg perigee
91.3985°
Mean anomaly
268.7377°
Rev number
3,702

§ Raw data

STARLINK-363581 67598U 26018K   26262.42630042  .00019849  00000+0  61559-3 0  99902 67598  97.2872 325.8640 0001040  91.3985 268.7377 15.33442800 37022

JSON: /api/v1/satellites/67598 · /tle

For live sub-satellite position, see the globe view (requires WebGL).

§ Visibility from observer

Set your observer location to see the next 7 days of passes ≥ 10°. The values pass through the URL so the page stays shareable.

No JS? Fill the form by hand. The geolocation button needs JavaScript.